| time (UTC) | temp F | wind direction | speed MPH | gust MPH | rain 1hr in | rain 24hr in | rain mn in | humidity % | barometer mb |
| 20260507045019 | 53 | 0 | 0.0 | 0.0 | 0.00 | 0.01 | 0.01 | 85 | 1023.9 |
| 20260507044546 | 53 | 0 | 0.0 | 1.0 | 0.00 | 0.01 | 0.01 | 84 | 1023.9 |
| 20260507044019 | 54 | 0 | 0.0 | 3.0 | 0.00 | 0.01 | 0.01 | 84 | 1023.8 |
| 20260507043519 | 54 | 0 | 0.0 | 3.0 | 0.00 | 0.01 | 0.01 | 84 | 1023.8 |
| 20260507043036 | 53 | 0 | 1.0 | 3.0 | 0.00 | 0.01 | 0.01 | 84 | 1023.8 |
| 20260507042519 | 53 | 0 | 0.0 | 2.0 | 0.00 | 0.01 | 0.01 | 85 | 1023.8 |
| 20260507042018 | 53 | 0 | 0.0 | 2.0 | 0.00 | 0.01 | 0.01 | 85 | 1023.9 |
| 20260507041536 | 53 | 0 | 0.0 | 2.0 | 0.00 | 0.01 | 0.01 | 86 | 1023.8 |
| 20260507041020 | 53 | 0 | 0.0 | 2.0 | 0.00 | 0.01 | 0.01 | 85 | 1023.9 |
| 20260507040520 | 53 | 0 | 0.0 | 0.0 | 0.00 | 0.01 | 0.01 | 86 | 1023.8 |
| 20260507040036 | 54 | 0 | 0.0 | 0.0 | 0.00 | 0.01 | 0.01 | 86 | 1023.8 |
| 20260507035519 | 54 | 0 | 0.0 | 0.0 | 0.00 | 0.01 | 0.01 | 86 | 1023.7 |
| 20260507035021 | 54 | 0 | 0.0 | 0.0 | 0.00 | 0.01 | 0.01 | 85 | 1023.6 |
| 20260507034540 | 54 | 0 | 0.0 | 2.0 | 0.00 | 0.01 | 0.01 | 85 | 1023.6 |
| 20260507034021 | 54 | 0 | 0.0 | 2.0 | 0.00 | 0.01 | 0.01 | 85 | 1023.5 |
| 20260507033520 | 54 | 223 | 0.0 | 2.0 | 0.00 | 0.01 | 0.01 | 85 | 1023.5 |
| 20260507033042 | 54 | 0 | 0.0 | 1.0 | 0.00 | 0.01 | 0.01 | 84 | 1023.4 |
| 20260507032519 | 54 | 0 | 0.0 | 1.0 | 0.00 | 0.01 | 0.01 | 84 | 1023.5 |
| 20260507032019 | 54 | 0 | 0.0 | 1.0 | 0.00 | 0.01 | 0.01 | 84 | 1023.4 |
| 20260507031536 | 54 | 0 | 0.0 | 1.0 | 0.00 | 0.01 | 0.01 | 84 | 1023.2 |
| 20260507031021 | 54 | 0 | 0.0 | 1.0 | 0.00 | 0.01 | 0.01 | 84 | 1023.2 |
| 20260507030521 | 54 | 0 | 0.0 | 1.0 | 0.00 | 0.01 | 0.01 | 84 | 1023.2 |
| 20260507030038 | 54 | 0 | 0.0 | 1.0 | 0.00 | 0.01 | 0.01 | 85 | 1023.2 |
| 20260507025519 | 54 | 0 | 0.0 | 0.0 | 0.00 | 0.01 | 0.01 | 84 | 1023.2 |
| 20260507025020 | 54 | 0 | 0.0 | 0.0 | 0.00 | 0.01 | 0.01 | 84 | 1023.2 |
| 20260507024541 | 54 | 0 | 0.0 | 1.0 | 0.00 | 0.01 | 0.01 | 84 | 1023.2 |
| 20260507024019 | 54 | 0 | 0.0 | 1.0 | 0.00 | 0.01 | 0.01 | 84 | 1023.1 |
| 20260507023519 | 54 | 0 | 0.0 | 1.0 | 0.00 | 0.01 | 0.01 | 84 | 1023.1 |
| 20260507023038 | 54 | 0 | 0.0 | 2.0 | 0.00 | 0.01 | 0.01 | 84 | 1023.2 |
| 20260507022519 | 54 | 0 | 0.0 | 2.0 | 0.00 | 0.01 | 0.01 | 84 | 1023.1 |
| 20260507022021 | 54 | 0 | 0.0 | 1.0 | 0.00 | 0.01 | 0.01 | 83 | 1023.0 |
| 20260507021547 | 54 | 0 | 0.0 | 1.0 | 0.00 | 0.01 | 0.01 | 83 | 1023.2 |
| 20260507021019 | 54 | 0 | 0.0 | 0.0 | 0.00 | 0.01 | 0.01 | 83 | 1023.1 |
| 20260507020520 | 54 | 0 | 0.0 | 0.0 | 0.00 | 0.01 | 0.01 | 83 | 1023.2 |
| 20260507020036 | 54 | 0 | 0.0 | 0.0 | 0.00 | 0.01 | 0.01 | 84 | 1023.2 |
| 20260507015519 | 54 | 0 | 0.0 | 0.0 | 0.00 | 0.01 | 0.01 | 84 | 1023.2 |
| 20260507015019 | 54 | 0 | 0.0 | 0.0 | 0.00 | 0.01 | 0.01 | 82 | 1023.2 |
| 20260507014535 | 54 | 0 | 0.0 | 0.0 | 0.00 | 0.01 | 0.01 | 82 | 1023.1 |
| 20260507014025 | 54 | 0 | 0.0 | 0.0 | 0.00 | 0.01 | 0.01 | 84 | 1023.1 |
| 20260507013519 | 54 | 0 | 0.0 | 0.0 | 0.00 | 0.01 | 0.01 | 83 | 1023.1 |
| 20260507013038 | 55 | 0 | 0.0 | 0.0 | 0.00 | 0.01 | 0.01 | 83 | 1023.2 |
| 20260507012522 | 55 | 0 | 0.0 | 0.0 | 0.00 | 0.01 | 0.01 | 83 | 1023.1 |
| 20260507012019 | 54 | 0 | 0.0 | 0.0 | 0.00 | 0.01 | 0.01 | 82 | 1023.2 |
| 20260507011538 | 55 | 0 | 0.0 | 3.0 | 0.00 | 0.01 | 0.01 | 82 | 1023.1 |
| 20260507011019 | 55 | 0 | 0.0 | 3.0 | 0.00 | 0.01 | 0.01 | 82 | 1023.1 |
| 20260507010520 | 55 | 48 | 0.0 | 3.0 | 0.00 | 0.01 | 0.01 | 82 | 1023.2 |
| 20260507010043 | 55 | 0 | 0.0 | 3.0 | 0.00 | 0.01 | 0.01 | 81 | 1023.2 |
| 20260507005520 | 55 | 86 | 1.0 | 3.0 | 0.00 | 0.01 | 0.01 | 81 | 1023.2 |
| 20260507005026 | 55 | 77 | 0.0 | 4.0 | 0.00 | 0.01 | 0.01 | 82 | 1023.3 |
| 20260507004535 | 55 | 81 | 0.0 | 4.0 | 0.00 | 0.01 | 0.01 | 82 | 1023.2 |
| 20260507004020 | 54 | 105 | 0.0 | 3.0 | 0.00 | 0.01 | 0.01 | 82 | 1023.3 |
| 20260507003520 | 54 | 0 | 0.0 | 3.0 | 0.00 | 0.01 | 0.01 | 82 | 1023.4 |
| 20260507003035 | 55 | 0 | 0.0 | 3.0 | 0.00 | 0.01 | 0.01 | 82 | 1023.3 |
| 20260507002519 | 55 | 0 | 0.0 | 2.0 | 0.00 | 0.01 | 0.01 | 82 | 1023.4 |
| 20260507002019 | 54 | 0 | 0.0 | 3.0 | 0.00 | 0.01 | 0.01 | 83 | 1023.4 |
| 20260507001537 | 54 | 0 | 0.0 | 3.0 | 0.00 | 0.01 | 0.01 | 82 | 1023.4 |
| 20260507001019 | 55 | 88 | 0.0 | 3.0 | 0.00 | 0.01 | 0.01 | 82 | 1023.3 |
| 20260507000523 | 55 | 87 | 0.0 | 3.0 | 0.00 | 0.01 | 0.01 | 83 | 1023.3 |
| 20260507000038 | 54 | 0 | 0.0 | 3.0 | 0.00 | 0.01 | 0.01 | 82 | 1023.3 |
| 20260506235520 | 54 | 63 | 0.0 | 3.0 | 0.00 | 0.01 | 0.01 | 82 | 1023.4 |
| 20260506235025 | 54 | 0 | 0.0 | 1.0 | 0.00 | 0.01 | 0.01 | 82 | 1023.4 |
| 20260506234548 | 54 | 0 | 0.0 | 1.0 | 0.00 | 0.01 | 0.01 | 81 | 1023.4 |
| 20260506234020 | 55 | 0 | 0.0 | 1.0 | 0.00 | 0.01 | 0.01 | 82 | 1023.4 |
| 20260506233520 | 55 | 0 | 0.0 | 0.0 | 0.00 | 0.01 | 0.01 | 82 | 1023.4 |
| 20260506233036 | 55 | 0 | 0.0 | 1.0 | 0.00 | 0.01 | 0.01 | 82 | 1023.5 |
| 20260506232522 | 55 | 0 | 0.0 | 1.0 | 0.00 | 0.01 | 0.01 | 82 | 1023.4 |
| 20260506232019 | 55 | 0 | 0.0 | 1.0 | 0.00 | 0.01 | 0.01 | 81 | 1023.4 |
| 20260506231538 | 54 | 0 | 0.0 | 1.0 | 0.00 | 0.01 | 0.01 | 82 | 1023.5 |
| 20260506231018 | 54 | 0 | 0.0 | 1.0 | 0.00 | 0.01 | 0.01 | 81 | 1023.4 |
| 20260506230519 | 54 | 0 | 0.0 | 1.0 | 0.00 | 0.01 | 0.01 | 81 | 1023.4 |
| 20260506230040 | 55 | 320 | 0.0 | 1.0 | 0.00 | 0.01 | 0.01 | 81 | 1023.4 |
| 20260506225519 | 55 | 0 | 0.0 | 2.0 | 0.00 | 0.01 | 0.01 | 82 | 1023.5 |
| 20260506225019 | 55 | 0 | 0.0 | 2.0 | 0.00 | 0.01 | 0.01 | 83 | 1023.5 |
| 20260506224530 | 55 | 0 | 0.0 | 2.0 | 0.00 | 0.01 | 0.01 | 82 | 1023.5 |
| 20260506224021 | 55 | 248 | 0.0 | 2.0 | 0.00 | 0.01 | 0.01 | 82 | 1023.6 |
| 20260506223518 | 55 | 0 | 0.0 | 1.0 | 0.00 | 0.01 | 0.01 | 83 | 1023.6 |
| 20260506223030 | 55 | 0 | 0.0 | 1.0 | 0.00 | 0.01 | 0.01 | 82 | 1023.6 |
| 20260506222518 | 55 | 0 | 0.0 | 2.0 | 0.00 | 0.01 | 0.01 | 82 | 1023.6 |
| 20260506222019 | 55 | 0 | 0.0 | 2.0 | 0.00 | 0.01 | 0.01 | 83 | 1023.7 |
| 20260506221534 | 55 | 234 | 0.0 | 2.0 | 0.00 | 0.01 | 0.01 | 83 | 1023.7 |
| 20260506221016 | 54 | 0 | 0.0 | 2.0 | 0.00 | 0.01 | 0.01 | 82 | 1023.7 |
| 20260506220517 | 54 | 0 | 0.0 | 2.0 | 0.00 | 0.01 | 0.01 | 83 | 1023.7 |
| 20260506220036 | 55 | 58 | 0.0 | 2.0 | 0.00 | 0.01 | 0.01 | 83 | 1023.7 |
| 20260506215517 | 55 | 319 | 0.0 | 2.0 | 0.00 | 0.01 | 0.01 | 85 | 1023.7 |
| 20260506215017 | 54 | 0 | 0.0 | 2.0 | 0.00 | 0.01 | 0.01 | 84 | 1023.7 |
| 20260506214534 | 54 | 0 | 0.0 | 2.0 | 0.00 | 0.01 | 0.01 | 84 | 1023.6 |
| 20260506214017 | 54 | 0 | 0.0 | 2.0 | 0.00 | 0.01 | 0.01 | 84 | 1023.7 |
| 20260506213516 | 54 | 0 | 0.0 | 2.0 | 0.00 | 0.01 | 0.01 | 85 | 1023.6 |
| 20260506213033 | 55 | 0 | 0.0 | 2.0 | 0.00 | 0.01 | 0.01 | 86 | 1023.7 |
| 20260506212520 | 55 | 0 | 0.0 | 2.0 | 0.00 | 0.01 | 0.01 | 85 | 1023.7 |
| 20260506212020 | 55 | 0 | 0.0 | 2.0 | 0.00 | 0.01 | 0.01 | 85 | 1023.8 |
| 20260506211535 | 55 | 0 | 0.0 | 3.0 | 0.00 | 0.01 | 0.01 | 85 | 1023.7 |
| 20260506211017 | 55 | 0 | 0.0 | 3.0 | 0.00 | 0.01 | 0.01 | 85 | 1023.6 |
| 20260506210518 | 55 | 0 | 0.0 | 3.0 | 0.00 | 0.01 | 0.01 | 86 | 1023.6 |
| 20260506210038 | 55 | 0 | 0.0 | 3.0 | 0.00 | 0.01 | 0.01 | 86 | 1023.6 |
| 20260506205517 | 55 | 257 | 0.0 | 3.0 | 0.00 | 0.01 | 0.01 | 85 | 1023.5 |
| 20260506205020 | 55 | 0 | 0.0 | 2.0 | 0.00 | 0.01 | 0.01 | 86 | 1023.5 |
| 20260506204547 | 55 | 0 | 0.0 | 8.0 | 0.00 | 0.01 | 0.01 | 86 | 1023.5 |
| 20260506204017 | 55 | 238 | 0.0 | 8.0 | 0.00 | 0.01 | 0.01 | 85 | 1023.5 |
| 20260506203522 | 55 | 0 | 2.0 | 8.0 | 0.00 | 0.01 | 0.01 | 84 | 1023.4 |
| 20260506203033 | 55 | 188 | 2.0 | 8.0 | 0.00 | 0.01 | 0.01 | 85 | 1023.4 |
| 20260506202518 | 55 | 0 | 0.0 | 3.0 | 0.00 | 0.01 | 0.01 | 85 | 1023.4 |
| 20260506202017 | 55 | 0 | 0.0 | 8.0 | 0.00 | 0.01 | 0.01 | 85 | 1023.4 |
| 20260506201539 | 55 | 0 | 2.0 | 8.0 | 0.00 | 0.01 | 0.01 | 84 | 1023.5 |
| 20260506201017 | 55 | 245 | 0.0 | 4.0 | 0.00 | 0.01 | 0.01 | 84 | 1023.4 |
| 20260506200517 | 55 | 162 | 1.0 | 6.0 | 0.00 | 0.01 | 0.01 | 84 | 1023.4 |
| 20260506200036 | 55 | 176 | 1.0 | 7.0 | 0.00 | 0.01 | 0.01 | 84 | 1023.4 |
| 20260506195518 | 55 | 230 | 2.0 | 7.0 | 0.00 | 0.01 | 0.01 | 84 | 1023.4 |
| 20260506195024 | 55 | 0 | 1.0 | 10.0 | 0.00 | 0.01 | 0.01 | 85 | 1023.3 |
| 20260506194539 | 55 | 0 | 3.0 | 10.0 | 0.00 | 0.01 | 0.01 | 85 | 1023.2 |
| 20260506194018 | 55 | 167 | 1.0 | 7.0 | 0.00 | 0.01 | 0.01 | 85 | 1023.2 |
| 20260506193520 | 55 | 186 | 2.0 | 6.0 | 0.00 | 0.01 | 0.01 | 84 | 1023.1 |
| 20260506193031 | 55 | 132 | 2.0 | 6.0 | 0.00 | 0.01 | 0.01 | 85 | 1023.2 |
| 20260506192519 | 55 | 134 | 1.0 | 6.0 | 0.00 | 0.01 | 0.01 | 86 | 1023.2 |
| 20260506192019 | 55 | 236 | 2.0 | 7.0 | 0.00 | 0.01 | 0.01 | 85 | 1023.2 |
| 20260506191537 | 55 | 269 | 1.0 | 7.0 | 0.00 | 0.01 | 0.01 | 85 | 1023.2 |
| 20260506191020 | 55 | 226 | 2.0 | 7.0 | 0.00 | 0.01 | 0.01 | 85 | 1023.2 |
| 20260506190520 | 55 | 234 | 1.0 | 5.0 | 0.00 | 0.01 | 0.01 | 87 | 1023.1 |
| 20260506190038 | 54 | 210 | 2.0 | 9.0 | 0.00 | 0.01 | 0.01 | 86 | 1023.2 |
| 20260506185518 | 54 | 235 | 3.0 | 9.0 | 0.00 | 0.01 | 0.01 | 86 | 1023.2 |
| 20260506185019 | 54 | 220 | 4.0 | 7.0 | 0.00 | 0.01 | 0.01 | 86 | 1023.3 |
| 20260506184535 | 54 | 219 | 4.0 | 7.0 | 0.00 | 0.01 | 0.01 | 86 | 1023.4 |
| 20260506184021 | 54 | 238 | 2.0 | 7.0 | 0.00 | 0.01 | 0.01 | 86 | 1023.2 |
| 20260506183520 | 54 | 234 | 2.0 | 8.0 | 0.00 | 0.01 | 0.01 | 87 | 1023.2 |
| 20260506183038 | 54 | 207 | 3.0 | 8.0 | 0.00 | 0.01 | 0.01 | 88 | 1023.0 |
| 20260506182519 | 54 | 175 | 0.0 | 5.0 | 0.00 | 0.01 | 0.01 | 88 | 1023.0 |
| 20260506182019 | 54 | 194 | 2.0 | 5.0 | 0.00 | 0.01 | 0.01 | 89 | 1023.0 |
| 20260506181536 | 54 | 218 | 1.0 | 5.0 | 0.00 | 0.01 | 0.01 | 89 | 1023.0 |
| 20260506181019 | 54 | 162 | 2.0 | 5.0 | 0.00 | 0.01 | 0.01 | 89 | 1023.1 |
| 20260506180524 | 53 | 189 | 1.0 | 4.0 | 0.00 | 0.01 | 0.01 | 90 | 1023.1 |
| 20260506180038 | 53 | 0 | 1.0 | 5.0 | 0.00 | 0.01 | 0.01 | 90 | 1023.0 |
| 20260506175518 | 53 | 227 | 2.0 | 5.0 | 0.00 | 0.01 | 0.01 | 91 | 1023.0 |
| 20260506175019 | 53 | 254 | 2.0 | 5.0 | 0.00 | 0.01 | 0.01 | 91 | 1023.2 |
| 20260506174536 | 53 | 254 | 2.0 | 5.0 | 0.00 | 0.01 | 0.01 | 91 | 1023.1 |
| 20260506174020 | 53 | 205 | 1.0 | 5.0 | 0.00 | 0.01 | 0.01 | 93 | 1023.2 |
| 20260506173519 | 53 | 0 | 0.0 | 4.0 | 0.00 | 0.01 | 0.01 | 92 | 1023.1 |
| 20260506173037 | 52 | 213 | 1.0 | 5.0 | 0.00 | 0.01 | 0.01 | 93 | 1023.2 |
| 20260506172519 | 52 | 234 | 0.0 | 5.0 | 0.00 | 0.01 | 0.01 | 93 | 1023.1 |
| 20260506172019 | 52 | 280 | 2.0 | 5.0 | 0.00 | 0.01 | 0.01 | 93 | 1023.1 |
| 20260506171543 | 52 | 242 | 1.0 | 4.0 | 0.00 | 0.01 | 0.01 | 93 | 1023.1 |
| 20260506171019 | 52 | 0 | 0.0 | 4.0 | 0.00 | 0.01 | 0.01 | 93 | 1023.1 |
| 20260506170519 | 52 | 236 | 1.0 | 4.0 | 0.00 | 0.01 | 0.01 | 94 | 1023.0 |
| 20260506170042 | 52 | 225 | 1.0 | 6.0 | 0.00 | 0.01 | 0.01 | 94 | 1023.0 |
| 20260506165519 | 52 | 286 | 2.0 | 6.0 | 0.00 | 0.01 | 0.01 | 93 | 1022.9 |
| 20260506165019 | 52 | 298 | 2.0 | 5.0 | 0.00 | 0.01 | 0.01 | 94 | 1022.8 |
| 20260506164546 | 52 | 233 | 1.0 | 5.0 | 0.00 | 0.01 | 0.01 | 94 | 1022.6 |
| 20260506164020 | 52 | 0 | 1.0 | 5.0 | 0.00 | 0.01 | 0.01 | 94 | 1022.5 |
| 20260506163525 | 52 | 175 | 1.0 | 4.0 | 0.00 | 0.01 | 0.01 | 95 | 1022.5 |
| 20260506163032 | 52 | 227 | 2.0 | 5.0 | 0.00 | 0.01 | 0.01 | 94 | 1022.5 |
| 20260506162517 | 52 | 246 | 0.0 | 5.0 | 0.00 | 0.01 | 0.01 | 95 | 1022.5 |
| 20260506162020 | 52 | 0 | 0.0 | 4.0 | 0.01 | 0.01 | 0.01 | 95 | 1022.3 |
| 20260506161539 | 52 | 232 | 2.0 | 5.0 | 0.01 | 0.01 | 0.01 | 95 | 1022.6 |
| 20260506161017 | 52 | 217 | 3.0 | 5.0 | 0.01 | 0.01 | 0.01 | 95 | 1022.7 |
| 20260506160521 | 52 | 275 | 1.0 | 5.0 | 0.01 | 0.01 | 0.01 | 95 | 1022.9 |
| 20260506160044 | 52 | 0 | 1.0 | 5.0 | 0.01 | 0.01 | 0.01 | 95 | 1022.8 |
| 20260506155517 | 52 | 222 | 2.0 | 5.0 | 0.01 | 0.01 | 0.01 | 95 | 1022.8 |
| 20260506155017 | 52 | 269 | 1.0 | 4.0 | 0.01 | 0.01 | 0.01 | 95 | 1022.7 |
| 20260506154536 | 52 | 249 | 1.0 | 3.0 | 0.01 | 0.01 | 0.01 | 95 | 1022.7 |
| 20260506154015 | 52 | 235 | 0.0 | 3.0 | 0.01 | 0.01 | 0.01 | 95 | 1022.7 |
| 20260506153517 | 52 | 194 | 0.0 | 4.0 | 0.01 | 0.01 | 0.01 | 95 | 1022.5 |
| 20260506153033 | 52 | 0 | 0.0 | 4.0 | 0.01 | 0.01 | 0.01 | 95 | 1022.3 |
| 20260506152518 | 52 | 205 | 1.0 | 5.0 | 0.01 | 0.01 | 0.01 | 95 | 1022.4 |
| 20260506152018 | 52 | 221 | 2.0 | 5.0 | 0.00 | 0.00 | 0.00 | 94 | 1022.6 |
| 20260506151549 | 52 | 252 | 0.0 | 3.0 | 0.00 | 0.00 | 0.00 | 95 | 1022.6 |
| 20260506151019 | 52 | 0 | 0.0 | 3.0 | 0.00 | 0.00 | 0.00 | 95 | 1022.7 |
| 20260506150519 | 52 | 209 | 1.0 | 3.0 | 0.00 | 0.00 | 0.00 | 95 | 1022.6 |
| 20260506150035 | 52 | 0 | 0.0 | 2.0 | 0.00 | 0.00 | 0.00 | 95 | 1022.8 |
| 20260506145518 | 52 | 0 | 0.0 | 2.0 | 0.00 | 0.00 | 0.00 | 95 | 1022.7 |
| 20260506145023 | 52 | 240 | 0.0 | 2.0 | 0.00 | 0.00 | 0.00 | 95 | 1022.5 |
| 20260506144535 | 52 | 0 | 0.0 | 4.0 | 0.00 | 0.00 | 0.00 | 95 | 1022.3 |
| 20260506144029 | 52 | 0 | 0.0 | 5.0 | 0.00 | 0.00 | 0.00 | 95 | 1022.4 |
| 20260506143519 | 52 | 157 | 2.0 | 5.0 | 0.00 | 0.00 | 0.00 | 94 | 1022.1 |
| 20260506143044 | 52 | 154 | 1.0 | 5.0 | 0.00 | 0.00 | 0.00 | 94 | 1022.2 |
| 20260506142518 | 52 | 0 | 1.0 | 4.0 | 0.00 | 0.00 | 0.00 | 94 | 1022.3 |
| 20260506142017 | 52 | 0 | 1.0 | 4.0 | 0.00 | 0.00 | 0.00 | 94 | 1022.4 |
| 20260506141530 | 52 | 227 | 1.0 | 4.0 | 0.00 | 0.00 | 0.00 | 94 | 1022.3 |
| 20260506141016 | 52 | 216 | 0.0 | 3.0 | 0.00 | 0.00 | 0.00 | 94 | 1022.6 |
| 20260506140518 | 52 | 196 | 0.0 | 3.0 | 0.00 | 0.00 | 0.00 | 94 | 1022.4 |
| 20260506140038 | 52 | 0 | 0.0 | 4.0 | 0.00 | 0.00 | 0.00 | 94 | 1022.4 |
| 20260506135517 | 52 | 223 | 2.0 | 4.0 | 0.00 | 0.00 | 0.00 | 94 | 1022.4 |
| 20260506135020 | 52 | 0 | 1.0 | 4.0 | 0.00 | 0.00 | 0.00 | 94 | 1022.5 |
| 20260506134536 | 52 | 238 | 1.0 | 5.0 | 0.00 | 0.00 | 0.00 | 94 | 1022.3 |
| 20260506134017 | 52 | 205 | 1.0 | 5.0 | 0.00 | 0.00 | 0.00 | 94 | 1022.3 |
| 20260506133518 | 52 | 232 | 1.0 | 6.0 | 0.00 | 0.00 | 0.00 | 94 | 1022.3 |
| 20260506133039 | 52 | 212 | 3.0 | 6.0 | 0.00 | 0.00 | 0.00 | 93 | 1022.1 |
| 20260506132520 | 52 | 130 | 2.0 | 4.0 | 0.00 | 0.00 | 0.00 | 94 | 1021.9 |
| 20260506132017 | 52 | 0 | 0.0 | 4.0 | 0.00 | 0.00 | 0.00 | 94 | 1022.0 |
| 20260506131533 | 52 | 0 | 0.0 | 4.0 | 0.00 | 0.00 | 0.00 | 93 | 1022.0 |
| 20260506131022 | 52 | 175 | 1.0 | 4.0 | 0.00 | 0.00 | 0.00 | 94 | 1022.0 |
| 20260506130521 | 52 | 169 | 0.0 | 5.0 | 0.00 | 0.00 | 0.00 | 94 | 1021.9 |
| 20260506130033 | 52 | 205 | 1.0 | 5.0 | 0.00 | 0.00 | 0.00 | 94 | 1022.0 |
| 20260506125517 | 52 | 194 | 1.0 | 6.0 | 0.00 | 0.00 | 0.00 | 94 | 1021.8 |
| 20260506125019 | 52 | 0 | 2.0 | 6.0 | 0.00 | 0.00 | 0.00 | 93 | 1021.8 |
| 20260506124530 | 52 | 157 | 1.0 | 6.0 | 0.00 | 0.00 | 0.00 | 93 | 1021.8 |
| 20260506124017 | 52 | 211 | 0.0 | 4.0 | 0.00 | 0.00 | 0.00 | 93 | 1021.7 |
| 20260506123518 | 52 | 154 | 1.0 | 4.0 | 0.00 | 0.00 | 0.00 | 93 | 1021.7 |
| 20260506123036 | 52 | 137 | 1.0 | 4.0 | 0.00 | 0.00 | 0.00 | 93 | 1021.6 |
| 20260506122518 | 52 | 0 | 0.0 | 4.0 | 0.00 | 0.00 | 0.00 | 93 | 1021.7 |
| 20260506122017 | 52 | 186 | 0.0 | 4.0 | 0.00 | 0.00 | 0.00 | 93 | 1021.7 |
| 20260506121533 | 52 | 186 | 0.0 | 4.0 | 0.00 | 0.00 | 0.00 | 92 | 1021.7 |
| 20260506121017 | 52 | 173 | 1.0 | 4.0 | 0.00 | 0.00 | 0.00 | 92 | 1021.6 |
| 20260506120520 | 52 | 188 | 0.0 | 4.0 | 0.00 | 0.00 | 0.00 | 92 | 1021.5 |
| 20260506120038 | 52 | 0 | 0.0 | 5.0 | 0.00 | 0.00 | 0.00 | 91 | 1021.4 |
| 20260506115514 | 52 | 197 | 1.0 | 5.0 | 0.00 | 0.00 | 0.00 | 91 | 1021.4 |
| 20260506115017 | 53 | 202 | 0.0 | 4.0 | 0.00 | 0.00 | 0.00 | 91 | 1021.4 |
| 20260506114540 | 53 | 155 | 1.0 | 5.0 | 0.00 | 0.00 | 0.00 | 90 | 1021.5 |
| 20260506114017 | 53 | 201 | 2.0 | 5.0 | 0.00 | 0.00 | 0.00 | 90 | 1021.5 |
| 20260506113518 | 53 | 226 | 1.0 | 5.0 | 0.00 | 0.00 | 0.00 | 90 | 1021.6 |
| 20260506113036 | 53 | 139 | 1.0 | 5.0 | 0.00 | 0.00 | 0.00 | 89 | 1021.5 |
| 20260506112519 | 53 | 195 | 2.0 | 5.0 | 0.00 | 0.00 | 0.00 | 89 | 1021.4 |
| 20260506112017 | 53 | 0 | 0.0 | 2.0 | 0.00 | 0.00 | 0.00 | 88 | 1021.5 |
| 20260506111537 | 53 | 174 | 0.0 | 4.0 | 0.00 | 0.00 | 0.00 | 88 | 1021.4 |
| 20260506111017 | 53 | 225 | 0.0 | 4.0 | 0.00 | 0.00 | 0.00 | 88 | 1021.3 |
| 20260506110520 | 53 | 206 | 0.0 | 4.0 | 0.00 | 0.00 | 0.00 | 88 | 1021.2 |
| 20260506110046 | 53 | 251 | 1.0 | 5.0 | 0.00 | 0.00 | 0.00 | 87 | 1021.2 |
| 20260506105518 | 53 | 0 | 2.0 | 5.0 | 0.00 | 0.00 | 0.00 | 87 | 1021.2 |
| 20260506105018 | 53 | 189 | 1.0 | 4.0 | 0.00 | 0.00 | 0.00 | 87 | 1021.0 |
| 20260506104537 | 53 | 227 | 0.0 | 4.0 | 0.00 | 0.00 | 0.00 | 87 | 1021.0 |
| 20260506104018 | 53 | 226 | 1.0 | 4.0 | 0.00 | 0.00 | 0.00 | 87 | 1021.0 |
| 20260506103519 | 53 | 0 | 0.0 | 3.0 | 0.00 | 0.00 | 0.00 | 87 | 1021.0 |
| 20260506103036 | 53 | 239 | 1.0 | 4.0 | 0.00 | 0.00 | 0.00 | 87 | 1020.9 |
| 20260506102518 | 53 | 249 | 1.0 | 4.0 | 0.00 | 0.00 | 0.00 | 87 | 1020.8 |
| 20260506102018 | 53 | 248 | 1.0 | 5.0 | 0.00 | 0.00 | 0.00 | 87 | 1020.8 |
| 20260506101549 | 53 | 263 | 2.0 | 7.0 | 0.00 | 0.00 | 0.00 | 87 | 1020.8 |
| 20260506101018 | 53 | 220 | 2.0 | 7.0 | 0.00 | 0.00 | 0.00 | 87 | 1020.7 |
| 20260506100520 | 53 | 249 | 2.0 | 6.0 | 0.00 | 0.00 | 0.00 | 86 | 1020.6 |
| 20260506100035 | 54 | 228 | 3.0 | 6.0 | 0.00 | 0.00 | 0.00 | 87 | 1020.6 |
| 20260506095517 | 54 | 231 | 1.0 | 7.0 | 0.00 | 0.00 | 0.00 | 87 | 1020.6 |
| 20260506095016 | 54 | 231 | 2.0 | 7.0 | 0.00 | 0.00 | 0.00 | 87 | 1020.5 |
| 20260506094530 | 54 | 263 | 2.0 | 6.0 | 0.00 | 0.00 | 0.00 | 87 | 1020.4 |
| 20260506094017 | 54 | 231 | 2.0 | 5.0 | 0.00 | 0.00 | 0.00 | 87 | 1020.3 |
| 20260506093518 | 54 | 271 | 1.0 | 5.0 | 0.00 | 0.00 | 0.00 | 87 | 1020.4 |
| 20260506093032 | 54 | 234 | 1.0 | 5.0 | 0.00 | 0.00 | 0.00 | 87 | 1020.3 |
| 20260506092518 | 54 | 239 | 2.0 | 5.0 | 0.00 | 0.00 | 0.00 | 86 | 1020.3 |
| 20260506092021 | 54 | 301 | 2.0 | 5.0 | 0.00 | 0.00 | 0.00 | 86 | 1020.3 |
| 20260506091536 | 54 | 230 | 1.0 | 4.0 | 0.00 | 0.00 | 0.00 | 87 | 1020.2 |
| 20260506091018 | 54 | 230 | 2.0 | 4.0 | 0.00 | 0.00 | 0.00 | 87 | 1020.2 |
| 20260506090517 | 54 | 0 | 0.0 | 3.0 | 0.00 | 0.00 | 0.00 | 87 | 1020.2 |
| 20260506090037 | 54 | 215 | 0.0 | 4.0 | 0.00 | 0.00 | 0.00 | 87 | 1020.1 |
| 20260506085517 | 54 | 196 | 1.0 | 4.0 | 0.00 | 0.00 | 0.00 | 87 | 1020.2 |
| 20260506085019 | 54 | 0 | 1.0 | 4.0 | 0.00 | 0.00 | 0.00 | 87 | 1020.1 |
| 20260506084533 | 55 | 193 | 0.0 | 2.0 | 0.00 | 0.00 | 0.00 | 87 | 1020.0 |
| 20260506084018 | 55 | 0 | 0.0 | 2.0 | 0.00 | 0.00 | 0.00 | 87 | 1020.0 |
| 20260506083518 | 55 | 0 | 0.0 | 2.0 | 0.00 | 0.00 | 0.00 | 87 | 1020.0 |
| 20260506083034 | 55 | 0 | 0.0 | 2.0 | 0.00 | 0.00 | 0.00 | 87 | 1020.0 |
| 20260506082518 | 55 | 190 | 0.0 | 3.0 | 0.00 | 0.00 | 0.00 | 87 | 1020.0 |
| 20260506082023 | 55 | 0 | 0.0 | 3.0 | 0.00 | 0.00 | 0.00 | 87 | 1020.0 |
| 20260506081536 | 55 | 0 | 0.0 | 3.0 | 0.00 | 0.00 | 0.00 | 87 | 1020.1 |
| 20260506081021 | 54 | 0 | 0.0 | 3.0 | 0.00 | 0.00 | 0.00 | 87 | 1020.0 |
| 20260506080520 | 54 | 0 | 1.0 | 4.0 | 0.00 | 0.00 | 0.00 | 87 | 1020.0 |
| 20260506073517 | 54 | 0 | 0.0 | 1.0 | 0.00 | 0.00 | 0.00 | 88 | 1019.9 |
| 20260506073042 | 54 | 0 | 0.0 | 0.0 | 0.00 | 0.00 | 0.00 | 89 | 1019.9 |
| 20260506072518 | 54 | 0 | 0.0 | 3.0 | 0.00 | 0.00 | 0.00 | 90 | 1019.8 |
| 20260506072020 | 54 | 0 | 0.0 | 3.0 | 0.00 | 0.00 | 0.00 | 90 | 1019.8 |
| 20260506071531 | 54 | 0 | 0.0 | 3.0 | 0.00 | 0.00 | 0.00 | 91 | 1019.8 |
| 20260506071018 | 53 | 0 | 1.0 | 3.0 | 0.00 | 0.00 | 0.00 | 91 | 1019.7 |
| 20260506070519 | 53 | 0 | 0.0 | 0.0 | 0.00 | 0.00 | 0.00 | 92 | 1019.7 |
| 20260506062018 | 53 | 0 | 0.0 | 2.0 | 0.00 | 0.00 | 0.00 | 89 | 1019.2 |
| 20260506061535 | 53 | 0 | 0.0 | 0.0 | 0.00 | 0.00 | 0.00 | 89 | 1019.1 |
| 20260506061019 | 54 | 0 | 0.0 | 0.0 | 0.00 | 0.00 | 0.00 | 89 | 1019.1 |
| 20260506060521 | 54 | 0 | 0.0 | 0.0 | 0.00 | 0.00 | 0.00 | 88 | 1019.0 |
| 20260506051020 | 55 | 0 | 0.0 | 0.0 | 0.00 | 0.00 | 0.00 | 87 | 1018.7 |
| 20260506050523 | 55 | 0 | 0.0 | 0.0 | 0.00 | 0.00 | 0.00 | 86 | 1018.6 |